Centerville, IA

4:03 AM CDT on March 29, 2017 (GMT -0500)
Centerville Municipal

Weather History for KTVK - May, 2013

Change the Weather History Date:

Tuesday, May 21, 2013

  Actual Average Record
Temperature  
Mean Temperature 65 °F -  
Max Temperature 73 °F 74 °F 90 °F (1964)
Min Temperature 55 °F 52 °F 39 °F (1963)
Growing Degree Days 15 (Base 50)    
Moisture  
Dew Point 57 °F    
Average Humidity 78    
Maximum Humidity 100    
Minimum Humidity 53    
Precipitation  
Precipitation 0.00 in - - ()
Sea Level Pressure  
Sea Level Pressure 29.70 in    
Wind  
Wind Speed 10 mph (SW)    
Max Wind Speed 17 mph    
Max Gust Speed 22 mph    
Visibility 10 miles    
Events      
Averages and records for this station are not official NWS values.
T = Trace of Precipitation, MM = Missing Value Source: NWS Daily Summary

Daily Weather History Graph

Daily Weather History Graph

Search for Another Location

Airport or City:

Trip Planner

Search our weather history database for the weather conditions in past years. The results will help you decide how hot, cold, wet, or windy it might be!

Date:

Astronomy

May. 21, 2013 Rise Set
Actual Time 5:49 AM CDT 8:27 PM CDT
Civil Twilight 5:17 AM CDT 8:59 PM CDT
Nautical Twilight 4:38 AM CDT 9:39 PM CDT
Astronomical Twilight 3:53 AM CDT 10:24 PM CDT
Moon 4:41 PM CDT (5/21) 3:18 AM CDT (5/21)
Length of Visible Light 15h 41m
Length of Day
14h 38m
Waxing Gibbous, 84% of the Moon is Illuminated
May 21
Waxing Gibbous
May 24
Full
May 31
Last Quarter
Jun 8
New
Jun 16
First Quarter

Hourly Weather History & Observations

Time (CDT) Temp. Dew Point Humidity Pressure Visibility Wind Dir Wind Speed Gust Speed Precip Events Conditions
12:35 AM 62.6 °F 62.6 °F 100% 29.66 in 10.0 mi South 6.9 mph - N/A   Clear
12:55 AM 62.6 °F 62.6 °F 100% 29.66 in 10.0 mi SSE 6.9 mph - N/A   Clear
1:15 AM 62.6 °F 62.6 °F 100% 29.66 in 10.0 mi SSE 8.1 mph - N/A   Clear
1:35 AM 62.6 °F 62.6 °F 100% 29.66 in 10.0 mi SSE 8.1 mph - N/A   Clear
1:55 AM 62.6 °F 62.6 °F 100% 29.65 in 10.0 mi South 8.1 mph - N/A   Clear
2:15 AM 62.6 °F 62.6 °F 100% 29.65 in 10.0 mi SE 9.2 mph - N/A   Partly Cloudy
2:35 AM 62.6 °F 62.6 °F 100% 29.64 in 10.0 mi SSE 10.4 mph - N/A   Partly Cloudy
2:55 AM 62.6 °F 62.6 °F 100% 29.64 in 8.0 mi South 8.1 mph - N/A   Mostly Cloudy
3:15 AM 62.6 °F 62.6 °F 100% 29.65 in 10.0 mi South 8.1 mph - N/A   Mostly Cloudy
3:35 AM 62.6 °F 62.6 °F 100% 29.65 in 10.0 mi South 9.2 mph - N/A   Clear
3:55 AM 60.8 °F 60.8 °F 100% 29.65 in 10.0 mi South 8.1 mph - N/A   Clear
4:15 AM 60.8 °F 60.8 °F 100% 29.65 in 10.0 mi South 8.1 mph - N/A   Clear
4:35 AM 59.0 °F 59.0 °F 100% 29.66 in 10.0 mi South 8.1 mph - N/A   Clear
4:55 AM 59.0 °F 59.0 °F 100% 29.67 in 10.0 mi SSW 8.1 mph - N/A   Clear
5:15 AM 59.0 °F 57.2 °F 94% 29.68 in 10.0 mi SW 9.2 mph - N/A   Clear
5:35 AM 57.2 °F 57.2 °F 100% 29.69 in 10.0 mi SSW 4.6 mph - N/A   Clear
5:55 AM 57.2 °F 57.2 °F 100% 29.68 in 10.0 mi SW 9.2 mph - N/A   Clear
6:15 AM 57.2 °F 55.4 °F 94% 29.68 in 10.0 mi SSW 6.9 mph - N/A   Clear
6:35 AM 57.2 °F 55.4 °F 94% 29.69 in 10.0 mi SSW 8.1 mph - N/A   Clear
6:55 AM 59.0 °F 55.4 °F 88% 29.69 in 10.0 mi SW 9.2 mph - N/A   Clear
7:15 AM 59.0 °F 55.4 °F 88% 29.70 in 10.0 mi SW 9.2 mph - N/A   Clear
7:35 AM 59.0 °F 55.4 °F 88% 29.70 in 10.0 mi SW 10.4 mph - N/A   Clear
7:55 AM 60.8 °F 57.2 °F 88% 29.71 in 10.0 mi SW 12.7 mph - N/A   Clear
8:15 AM 60.8 °F 57.2 °F 88% 29.71 in 10.0 mi WSW 13.8 mph - N/A   Clear
8:35 AM 62.6 °F 57.2 °F 82% 29.71 in 10.0 mi WSW 15.0 mph - N/A   Partly Cloudy
8:55 AM 62.6 °F 57.2 °F 82% 29.72 in 10.0 mi WSW 12.7 mph - N/A   Mostly Cloudy
9:15 AM 62.6 °F 57.2 °F 82% 29.73 in 10.0 mi WSW 11.5 mph - N/A   Mostly Cloudy
9:35 AM 62.6 °F 57.2 °F 82% 29.73 in 10.0 mi WSW 10.4 mph - N/A   Mostly Cloudy
9:55 AM 62.6 °F 57.2 °F 82% 29.73 in 10.0 mi WSW 9.2 mph - N/A   Mostly Cloudy
10:15 AM 64.4 °F 57.2 °F 77% 29.73 in 10.0 mi SW 13.8 mph - N/A   Scattered Clouds
10:35 AM 64.4 °F 57.2 °F 77% 29.73 in 10.0 mi SW 13.8 mph - N/A   Scattered Clouds
10:55 AM 66.2 °F 57.2 °F 73% 29.73 in 10.0 mi SW 12.7 mph - N/A   Partly Cloudy
11:15 AM 66.2 °F 57.2 °F 73% 29.72 in 10.0 mi WSW 9.2 mph 16.1 mph N/A   Partly Cloudy
11:35 AM 68.0 °F 57.2 °F 68% 29.72 in 10.0 mi SSW 15.0 mph - N/A   Partly Cloudy
11:55 AM 68.0 °F 59.0 °F 73% 29.73 in 10.0 mi SSW 17.3 mph - N/A   Clear
12:15 PM 68.0 °F 57.2 °F 68% 29.73 in 10.0 mi SSW 16.1 mph 21.9 mph N/A   Clear
12:35 PM 68.0 °F 57.2 °F 68% 29.73 in 10.0 mi SSW 16.1 mph - N/A   Clear
12:55 PM 69.8 °F 59.0 °F 68% 29.72 in 10.0 mi SW 12.7 mph 21.9 mph N/A   Clear
1:15 PM 69.8 °F 57.2 °F 64% 29.72 in 10.0 mi SSW 15.0 mph - N/A   Clear
1:35 PM 71.6 °F 57.2 °F 60% 29.71 in 10.0 mi SW 13.8 mph - N/A   Clear
1:55 PM 71.6 °F 57.2 °F 60% 29.71 in 10.0 mi SSW 13.8 mph 20.7 mph N/A   Partly Cloudy
2:15 PM 71.6 °F 57.2 °F 60% 29.70 in 10.0 mi SSW 15.0 mph 18.4 mph N/A   Clear
2:35 PM 71.6 °F 57.2 °F 60% 29.71 in 10.0 mi SW 17.3 mph - N/A   Clear
2:55 PM 71.6 °F 59.0 °F 64% 29.71 in 10.0 mi SSW 15.0 mph 20.7 mph N/A   Clear
3:15 PM 71.6 °F 57.2 °F 60% 29.70 in 10.0 mi SSW 12.7 mph - N/A   Clear
3:35 PM 73.4 °F 57.2 °F 57% 29.70 in 10.0 mi SSW 13.8 mph - N/A   Partly Cloudy
3:55 PM 73.4 °F 55.4 °F 53% 29.70 in 10.0 mi SW 17.3 mph 20.7 mph N/A   Clear
4:15 PM 71.6 °F 55.4 °F 57% 29.70 in 10.0 mi SSW 17.3 mph - N/A   Partly Cloudy
4:35 PM 73.4 °F 55.4 °F 53% 29.70 in 10.0 mi WSW 15.0 mph 20.7 mph N/A   Clear
4:55 PM 71.6 °F 55.4 °F 57% 29.68 in 10.0 mi SSW 13.8 mph 20.7 mph N/A   Partly Cloudy
5:15 PM 73.4 °F 55.4 °F 53% 29.69 in 10.0 mi WSW 13.8 mph - N/A   Scattered Clouds
5:35 PM 71.6 °F 53.6 °F 53% 29.69 in 10.0 mi SSW 10.4 mph 17.3 mph N/A   Scattered Clouds
5:55 PM 71.6 °F 55.4 °F 57% 29.69 in 10.0 mi WSW 9.2 mph - N/A   Mostly Cloudy
6:15 PM 71.6 °F 53.6 °F 53% 29.69 in 10.0 mi West 11.5 mph - N/A   Mostly Cloudy
6:35 PM 69.8 °F 53.6 °F 56% 29.69 in 10.0 mi WSW 13.8 mph - N/A   Scattered Clouds
6:55 PM 69.8 °F 53.6 °F 56% 29.69 in 10.0 mi WSW 9.2 mph - N/A   Mostly Cloudy
7:15 PM 68.0 °F 53.6 °F 60% 29.70 in 10.0 mi West 9.2 mph - N/A   Mostly Cloudy
7:35 PM 69.8 °F 53.6 °F 56% 29.70 in 10.0 mi WSW 9.2 mph - N/A   Mostly Cloudy
7:55 PM 68.0 °F 55.4 °F 64% 29.70 in 10.0 mi West 6.9 mph - N/A   Mostly Cloudy
8:15 PM 66.2 °F 55.4 °F 68% 29.70 in 10.0 mi WNW 6.9 mph - N/A   Mostly Cloudy
8:35 PM 64.4 °F 53.6 °F 68% 29.70 in 10.0 mi WNW 11.5 mph - N/A   Mostly Cloudy
8:55 PM 62.6 °F 53.6 °F 72% 29.69 in 10.0 mi WNW 8.1 mph - N/A   Scattered Clouds
9:15 PM 60.8 °F 53.6 °F 77% 29.69 in 10.0 mi WNW 6.9 mph - N/A   Partly Cloudy
9:35 PM 59.0 °F 53.6 °F 82% 29.71 in 10.0 mi WNW 6.9 mph - N/A   Partly Cloudy
9:55 PM 59.0 °F 53.6 °F 82% 29.71 in 10.0 mi WNW 6.9 mph - N/A   Mostly Cloudy
10:15 PM 59.0 °F 53.6 °F 82% 29.71 in 10.0 mi West 6.9 mph - N/A   Scattered Clouds
10:35 PM 59.0 °F 53.6 °F 82% 29.71 in 10.0 mi WNW 5.8 mph - N/A   Partly Cloudy
10:55 PM 57.2 °F 53.6 °F 88% 29.72 in 10.0 mi West 5.8 mph - N/A   Clear
11:35 PM 57.2 °F 53.6 °F 88% 29.71 in 10.0 mi Calm Calm - N/A   Clear
11:55 PM 55.4 °F 53.6 °F 94% 29.72 in 10.0 mi South 3.5 mph - N/A   Clear